TimeMDT,TemperatureF,Dew PointF,Humidity,Sea Level PressureIn,VisibilityMPH,Wind Direction,Wind SpeedMPH,Gust SpeedMPH,PrecipitationIn,Events,Conditions,WindDirDegrees,DateUTC
12:55 AM,50.0,26.1,39,30.31,10.0,WNW,5.8,-,N/A,,Clear,290,2012-09-14 06:55:00
1:55 AM,48.9,27.0,43,30.31,10.0,WSW,9.2,-,N/A,,Clear,240,2012-09-14 07:55:00
2:55 AM,48.9,28.0,44,30.31,10.0,West,6.9,-,N/A,,Clear,270,2012-09-14 08:55:00
3:55 AM,46.9,28.9,50,30.32,10.0,West,8.1,-,N/A,,Clear,270,2012-09-14 09:55:00
4:55 AM,46.0,28.9,51,30.33,10.0,West,6.9,-,N/A,,Clear,270,2012-09-14 10:55:00
5:55 AM,44.1,28.9,55,30.33,10.0,West,8.1,-,N/A,,Clear,270,2012-09-14 11:55:00
6:55 AM,43.0,30.0,60,30.36,10.0,West,3.5,-,N/A,,Clear,260,2012-09-14 12:55:00
7:55 AM,51.1,30.0,44,30.36,10.0,West,8.1,-,N/A,,Clear,260,2012-09-14 13:55:00
8:55 AM,62.1,30.9,31,30.35,10.0,West,4.6,-,N/A,,Clear,280,2012-09-14 14:55:00
9:55 AM,69.1,30.0,23,30.34,10.0,Calm,Calm,-,N/A,,Clear,0,2012-09-14 15:55:00
10:55 AM,73.0,30.0,20,30.32,10.0,Calm,Calm,-,N/A,,Clear,0,2012-09-14 16:55:00
11:55 AM,75.9,33.1,21,30.29,10.0,West,9.2,-,N/A,,Clear,270,2012-09-14 17:55:00
12:55 PM,79.0,33.1,19,30.26,10.0,Calm,Calm,-,N/A,,Clear,0,2012-09-14 18:55:00
1:55 PM,82.0,33.1,17,30.22,10.0,WNW,5.8,-,N/A,,Clear,290,2012-09-14 19:55:00
2:55 PM,82.9,33.1,17,30.19,10.0,Variable,4.6,-,N/A,,Clear,0,2012-09-14 20:55:00
3:55 PM,82.9,32.0,16,30.17,10.0,South,4.6,-,N/A,,Clear,190,2012-09-14 21:55:00
4:55 PM,82.0,32.0,16,30.16,10.0,SSE,5.8,-,N/A,,Clear,160,2012-09-14 22:55:00
5:55 PM,81.0,32.0,17,30.14,10.0,SE,5.8,-,N/A,,Clear,140,2012-09-14 23:55:00
6:55 PM,72.0,32.0,23,30.14,10.0,ESE,6.9,-,N/A,,Clear,110,2012-09-15 00:55:00
7:55 PM,64.0,30.9,29,30.14,10.0,ESE,8.1,-,N/A,,Clear,110,2012-09-15 01:55:00
8:55 PM,63.0,32.0,31,30.13,10.0,East,6.9,-,N/A,,Clear,90,2012-09-15 02:55:00
9:55 PM,62.1,33.1,34,30.11,10.0,East,8.1,-,N/A,,Clear,90,2012-09-15 03:55:00
10:55 PM,60.1,34.0,38,30.09,10.0,East,6.9,-,N/A,,Clear,80,2012-09-15 04:55:00
11:55 PM,60.1,34.0,38,30.07,10.0,East,5.8,-,N/A,,Clear,80,2012-09-15 05:55:00